This demonstration page uses our WeatherBlox Daily Observations layout. Learn more.

Left ArrowRight Arrow

Hourly Observations for February 4, 2018

Temp ( °F °C ) Dew Point ( °F °C ) Humidity (%) Winds ( mph kmh ) Pressure ( in mb ) Visibility ( mi km ) Precip ( " mm )
12:16 am 00:16 Windy with Snow Likely 24 -4.4 19 -7.2 81 81 N 25 41 30.09 1019 2 3 0.00 0.03
12:51 am 00:51 Windy with Snow Likely 21 -6 18 -8 86 86 N 24 39 30.12 1020 2 2 0.00 0.03
12:54 am 00:54 Windy with Snow Likely 22 -5.6 18 -7.8 85 85 N 26 43 30.07 1018 2 3 0.00 0.03
1:01 am 01:01 Windy with Snow Likely 22 -5.6 17 -8.3 82 82 N 30 48 30.15 1021 3 4 0.00 0.03
1:07 am 01:07 Windy with Snow Likely 21 -6.1 17 -8.3 85 85 NNW 29 46 30.15 1021 2 2 0.00 0.03
1:28 am 01:28 Windy with Snow Likely 20 -6.7 16 -8.9 85 85 N 22 35 30.15 1021 1 2 0.00 0.03
1:47 am 01:47 Cloudy with Light Snow 19 -7.2 14 -10 81 81 NNW 17 28 30.15 1021 2 3 0.00 0.03
1:54 am 01:54 Windy with Snow Likely 19 -7.2 14 -10 81 81 NNW 22 35 30.11 1020 5 8 0.00 0.03
2:02 am 02:02 Windy with Snow Likely 19 -7.2 14 -10 81 81 NNW 22 35 30.21 1023 6 10 0.00 0.03
2:54 am 02:54 Cloudy 16 -8.9 10 -12.2 77 77 N 23 37 30.14 1021 10 16 0.00 0.03
3:31 am 03:31 Windy with Snow Likely 14 -10 7 -13.9 73 73 NNW 30 48 30.24 1024 7 11 0.00 0.03
3:39 am 03:39 Cloudy 14 -10 7 -13.9 73 73 NNW 26 43 30.27 1025 7 11 0.00 0.03
3:54 am 03:54 Windy with Snow Likely 13 -10.6 7 -13.9 77 77 N 24 39 30.18 1022 6 10 0.00 0.03
4:54 am 04:54 Cloudy 10 -12.2 3 -16.1 73 73 N 25 41 30.22 1023 10 16 0.00 0.03
5:40 am 05:40 Windy with Snow Likely 9 -12.8 2 -16.7 73 73 N 26 43 30.36 1028 3 4 0.00 0.03
5:54 am 05:54 Cloudy with Snow 9 -12.8 3 -16.1 77 77 N 23 37 30.26 1025 3 4 0.00 0.03
6:05 am 06:05 Cloudy with Snow 8 -13.3 2 -16.7 76 76 N 23 37 30.36 1028 4 6 0.00 0.03
6:54 am 06:54 Windy with Snow Likely 7 -13.9 0 -17.8 73 73 N 29 46 30.30 1026 4 6 0.00 0.03
7:04 am 07:04 Windy with Snow Likely 7 -13.9 0 -17.8 73 73 N 25 41 30.42 1030 3 4 0.00 0.03
7:17 am 07:17 Windy with Snow Likely 7 -13.9 2 -16.7 80 80 N 24 39 30.42 1030 2 2 0.00 0.03
7:24 am 07:24 Windy with Snow Likely 7 -13.9 2 -16.7 80 80 NNW 22 35 30.42 1030 1 2 0.00 0.03
7:39 am 07:39 Windy with Snow Likely 6 -14.4 1 -17.2 79 79 N 22 35 30.42 1030 1 2 0.00 0.03
7:54 am 07:54 Mostly Cloudy with Light Snow 6 -14.4 1 -17.2 79 79 N 20 31 30.36 1028 1 1 0.00 0.03
8:03 am 08:03 Mostly Cloudy with Snow 6 -14.4 2 -16.7 83 83 N 21 33 30.42 1030 1 1 0.00 0.03
8:35 am 08:35 Mostly Cloudy with Light Snow 6 -14.4 1 -17.2 79 79 N 25 41 30.48 1032 1 2 0.00 0.03
8:47 am 08:47 Windy with Snow Likely 6 -14.4 1 -17.2 79 79 N 21 33 30.48 1032 3 4 0.00 0.03
8:54 am 08:54 Mostly Cloudy with Blowing Snow 6 -14.4 0 -17.8 76 76 N 23 37 30.42 1030 5 8 0.00 0.03
9:03 am 09:03 Mostly Cloudy 6 -14.4 0 -17.8 76 76 N 20 31 30.48 1032 7 11 0.00 0.00
9:41 am 09:41 Mostly Cloudy 6 -14.4 -2 -18.9 69 69 N 22 35 30.50 1033 10 16 0.00 0.00
9:54 am 09:54 Mostly Cloudy 7 -13.9 -1 -18.3 70 70 N 18 30 30.45 1031 10 16 0.00 0.00
10:54 am 10:54 Cloudy 9 -12.8 -2 -18.9 61 61 NNW 22 35 30.49 1033 10 16 0.00 0.00
11:54 am 11:54 Sunny 10 -12.2 -2 -18.9 58 58 NNW 18 30 30.51 1033 10 16 0.00 0.00
12:54 pm 12:54 Mostly Sunny 11 -11.7 -1 -18.3 58 58 N 20 31 30.51 1033 10 16 0.00 0.00
1:54 pm 13:54 Sunny 13 -10.6 -1 -18.3 54 54 N 18 30 30.49 1033 10 16 0.00 0.00
2:54 pm 14:54 Sunny 13 -10.6 -2 -18.9 51 51 N 15 24 30.47 1032 10 16 0.00 0.00
3:54 pm 15:54 Sunny 13 -10.6 -3 -19.4 49 49 NW 14 22 30.48 1032 10 16 0.00 0.00
4:54 pm 16:54 Sunny 11 -11.7 -4 -20 51 51 NW 10 17 30.48 1032 10 16 0.00 0.00
5:54 pm 17:54 Clear 9 -12.8 -4 -20 55 55 NW 6 9 30.48 1032 10 16 0.00 0.00
6:54 pm 18:54 Clear 8 -13.3 -4 -20 57 57 WNW 5 7 30.49 1032 10 16 0.00 0.00
7:54 pm 19:54 Clear 6 -14.4 -3 -19.4 66 66 Calm 30.47 1032 10 16 0.00 0.00
8:54 pm 20:54 Clear 3 -16.1 -4 -20 72 72 SW 3 6 30.46 1031 10 16 0.00 0.00
9:54 pm 21:54 Clear 2 -16.7 -4 -20 76 76 S 5 7 30.43 1030 10 16 0.00 0.00
10:54 pm 22:54 Clear 1 -17.2 -6 -21.1 72 72 SW 3 6 30.42 1030 10 16 0.00 0.00
11:54 pm 23:54 Clear 2 -16.7 -5 -20.6 72 72 SSW 7 11 30.38 1029 10 16 0.00 0.00

Powered by AerisWeather